| time (UTC) | temp F | wind direction | speed MPH | gust MPH | rain 1hr in | rain 24hr in | rain mn in | humidity % | barometer mb |
| 20260903062214 | 83 | 158 | 0.0 | 4.0 | 0.00 | 0.00 | 0.00 | 55 | 1009.3 |
| 20260903060713 | 84 | 210 | 0.0 | 5.0 | 0.00 | 0.00 | 0.00 | 54 | 1009.3 |
| 20260903055212 | 84 | 140 | 0.0 | 7.0 | 0.00 | 0.00 | 0.00 | 53 | 1009.2 |
| 20260903053711 | 84 | 129 | 2.0 | 5.0 | 0.00 | 0.00 | 0.00 | 53 | 1009.3 |
| 20260903052210 | 85 | 179 | 0.0 | 6.0 | 0.00 | 0.00 | 0.00 | 52 | 1009.3 |
| 20260903045208 | 86 | 148 | 0.0 | 5.0 | 0.00 | 0.00 | 0.00 | 50 | 1009.2 |
| 20260903043707 | 86 | 166 | 3.0 | 4.0 | 0.00 | 0.00 | 0.00 | 49 | 1009.2 |
| 20260903042206 | 87 | 140 | 0.0 | 6.0 | 0.00 | 0.00 | 0.00 | 48 | 1009.3 |
| 20260903040705 | 87 | 136 | 0.0 | 6.0 | 0.00 | 0.00 | 0.00 | 48 | 1009.3 |
| 20260903035205 | 88 | 136 | 0.0 | 7.0 | 0.00 | 0.00 | 0.00 | 48 | 1009.3 |
| 20260903033703 | 88 | 120 | 0.0 | 6.0 | 0.00 | 0.00 | 0.00 | 48 | 1009.2 |
| 20260903030701 | 88 | 140 | 0.0 | 6.0 | 0.00 | 0.00 | 0.00 | 48 | 1009.2 |
| 20260903025200 | 88 | 134 | 0.0 | 6.0 | 0.00 | 0.00 | 0.00 | 47 | 1009.0 |
| 20260903023659 | 89 | 166 | 0.0 | 5.0 | 0.00 | 0.00 | 0.00 | 47 | 1008.9 |
| 20260903022158 | 90 | 131 | 1.0 | 6.0 | 0.00 | 0.00 | 0.00 | 46 | 1008.8 |
| 20260903020658 | 90 | 150 | 0.0 | 5.0 | 0.00 | 0.00 | 0.00 | 45 | 1008.5 |
| 20260903015157 | 91 | 139 | 0.0 | 5.0 | 0.00 | 0.00 | 0.00 | 44 | 1008.4 |
| 20260903013656 | 92 | 147 | 0.0 | 6.0 | 0.00 | 0.00 | 0.00 | 44 | 1008.2 |
| 20260903012155 | 92 | 153 | 4.0 | 7.0 | 0.00 | 0.00 | 0.00 | 43 | 1008.0 |
| 20260903010654 | 93 | 125 | 4.0 | 6.0 | 0.00 | 0.00 | 0.00 | 42 | 1008.0 |
| 20260903005153 | 94 | 142 | 5.0 | 6.0 | 0.00 | 0.00 | 0.00 | 41 | 1007.9 |
| 20260903003652 | 95 | 132 | 2.0 | 6.0 | 0.00 | 0.00 | 0.00 | 39 | 1008.0 |
| 20260903002151 | 96 | 166 | 0.0 | 6.0 | 0.00 | 0.00 | 0.00 | 37 | 1007.8 |
| 20260903000650 | 97 | 143 | 0.0 | 9.0 | 0.00 | 0.00 | 0.00 | 36 | 1007.8 |
| 20260902233648 | 98 | 198 | 2.0 | 7.0 | 0.00 | 0.00 | 0.00 | 33 | 1007.8 |
| 20260902232147 | 99 | 142 | 2.0 | 7.0 | 0.00 | 0.00 | 0.00 | 33 | 1007.9 |
| 20260902230646 | 100 | 124 | 3.0 | 7.0 | 0.00 | 0.00 | 0.00 | 32 | 1008.0 |
| 20260902225145 | 100 | 207 | 0.0 | 6.0 | 0.00 | 0.00 | 0.00 | 32 | 1007.9 |
| 20260902222143 | 101 | 166 | 0.0 | 12.0 | 0.00 | 0.00 | 0.00 | 32 | 1008.1 |
| 20260902220642 | 101 | 165 | 0.0 | 6.0 | 0.00 | 0.00 | 0.00 | 31 | 1008.2 |
| 20260902215141 | 101 | 150 | 4.0 | 7.0 | 0.00 | 0.00 | 0.00 | 31 | 1008.3 |
| 20260902213640 | 101 | 180 | 5.0 | 11.0 | 0.00 | 0.00 | 0.00 | 31 | 1008.4 |
| 20260902212140 | 101 | 129 | 1.0 | 8.0 | 0.00 | 0.00 | 0.00 | 32 | 1008.6 |
| 20260902210639 | 101 | 140 | 6.0 | 13.0 | 0.00 | 0.00 | 0.00 | 32 | 1008.8 |
| 20260902205137 | 102 | 170 | 0.0 | 6.0 | 0.00 | 0.00 | 0.00 | 32 | 1009.0 |
| 20260902203637 | 102 | 110 | 3.0 | 10.0 | 0.00 | 0.00 | 0.00 | 33 | 1009.2 |
| 20260902202136 | 102 | 132 | 4.0 | 8.0 | 0.00 | 0.00 | 0.00 | 32 | 1009.4 |
| 20260902195133 | 101 | 169 | 2.0 | 12.0 | 0.00 | 0.00 | 0.00 | 34 | 1009.8 |
| 20260902192132 | 101 | 170 | 0.0 | 6.0 | 0.00 | 0.00 | 0.00 | 34 | 1010.1 |
| 20260902190631 | 100 | 132 | 0.0 | 7.0 | 0.00 | 0.00 | 0.00 | 35 | 1010.2 |
| 20260902185130 | 100 | 238 | 0.0 | 9.0 | 0.00 | 0.00 | 0.00 | 35 | 1010.6 |
| 20260902183629 | 100 | 208 | 6.0 | 12.0 | 0.00 | 0.00 | 0.00 | 35 | 1010.8 |
| 20260902180627 | 99 | 126 | 0.0 | 14.0 | 0.00 | 0.00 | 0.00 | 38 | 1011.2 |
| 20260902175126 | 99 | 256 | 6.0 | 13.0 | 0.00 | 0.00 | 0.00 | 37 | 1011.4 |
| 20260902173625 | 98 | 221 | 4.0 | 7.0 | 0.00 | 0.00 | 0.00 | 40 | 1011.6 |
| 20260902172124 | 98 | 207 | 5.0 | 10.0 | 0.00 | 0.00 | 0.00 | 40 | 1011.8 |
| 20260902170623 | 96 | 230 | 2.0 | 13.0 | 0.00 | 0.00 | 0.00 | 42 | 1011.9 |
| 20260902165122 | 96 | 203 | 0.0 | 7.0 | 0.00 | 0.00 | 0.00 | 42 | 1012.1 |
| 20260902163621 | 95 | 212 | 0.0 | 7.0 | 0.00 | 0.00 | 0.00 | 43 | 1012.3 |
| 20260902162120 | 94 | 200 | 0.0 | 9.0 | 0.00 | 0.00 | 0.00 | 45 | 1012.5 |
| 20260902160619 | 93 | 131 | 0.0 | 6.0 | 0.00 | 0.00 | 0.00 | 46 | 1012.6 |
| 20260902155118 | 92 | 221 | 0.0 | 7.0 | 0.00 | 0.00 | 0.00 | 48 | 1012.7 |
| 20260902153617 | 92 | 158 | 0.0 | 7.0 | 0.00 | 0.00 | 0.00 | 49 | 1012.7 |
| 20260902152116 | 90 | 179 | 4.0 | 6.0 | 0.00 | 0.00 | 0.00 | 51 | 1012.7 |
| 20260902150615 | 89 | 260 | 0.0 | 2.0 | 0.00 | 0.00 | 0.00 | 52 | 1012.5 |
| 20260902145115 | 88 | 200 | 0.0 | 2.0 | 0.00 | 0.00 | 0.00 | 54 | 1012.6 |
| 20260902143613 | 86 | 155 | 1.0 | 6.0 | 0.00 | 0.00 | 0.00 | 56 | 1012.8 |
| 20260902142112 | 84 | 237 | 0.0 | 2.0 | 0.00 | 0.00 | 0.00 | 60 | 1012.8 |
| 20260902140612 | 82 | 205 | 0.0 | 5.0 | 0.00 | 0.00 | 0.00 | 63 | 1012.8 |
| 20260902135111 | 80 | 200 | 0.0 | 1.0 | 0.00 | 0.00 | 0.00 | 64 | 1012.8 |
| 20260902133609 | 79 | 148 | 0.0 | 1.0 | 0.00 | 0.00 | 0.00 | 66 | 1012.7 |
| 20260902132109 | 78 | 198 | 0.0 | 5.0 | 0.00 | 0.00 | 0.00 | 67 | 1012.7 |
| 20260902130607 | 76 | 121 | 0.0 | 0.0 | 0.00 | 0.00 | 0.00 | 69 | 1012.7 |
| 20260902125107 | 76 | 167 | 0.0 | 1.0 | 0.00 | 0.00 | 0.00 | 70 | 1012.6 |
| 20260902123606 | 74 | 206 | 0.0 | 0.0 | 0.00 | 0.00 | 0.00 | 71 | 1012.6 |
| 20260902122105 | 74 | 198 | 0.0 | 0.0 | 0.00 | 0.00 | 0.00 | 71 | 1012.4 |
| 20260902120604 | 75 | 232 | 0.0 | 0.0 | 0.00 | 0.00 | 0.00 | 70 | 1012.3 |
| 20260902115103 | 75 | 163 | 0.0 | 0.0 | 0.00 | 0.00 | 0.00 | 69 | 1012.3 |
| 20260902113602 | 75 | 222 | 0.0 | 0.0 | 0.00 | 0.00 | 0.00 | 69 | 1012.3 |
| 20260902103558 | 76 | 210 | 0.0 | 0.0 | 0.00 | 0.00 | 0.00 | 67 | 1012.0 |
| 20260902102057 | 76 | 236 | 0.0 | 0.0 | 0.00 | 0.00 | 0.00 | 66 | 1011.9 |
| 20260902100556 | 76 | 222 | 0.0 | 0.0 | 0.00 | 0.00 | 0.00 | 65 | 1012.0 |
| 20260902095055 | 76 | 248 | 0.0 | 0.0 | 0.00 | 0.00 | 0.00 | 64 | 1011.7 |
| 20260902093554 | 77 | 232 | 0.0 | 0.0 | 0.00 | 0.00 | 0.00 | 63 | 1011.8 |
| 20260902092053 | 77 | 203 | 0.0 | 0.0 | 0.00 | 0.00 | 0.00 | 63 | 1011.8 |
| 20260902090552 | 77 | 210 | 0.0 | 1.0 | 0.00 | 0.00 | 0.00 | 63 | 1011.7 |
| 20260902085051 | 77 | 226 | 0.0 | 1.0 | 0.00 | 0.00 | 0.00 | 63 | 1011.6 |
| 20260902083550 | 77 | 193 | 0.0 | 0.0 | 0.00 | 0.00 | 0.00 | 61 | 1011.6 |
| 20260902082049 | 78 | 155 | 0.0 | 1.0 | 0.00 | 0.00 | 0.00 | 60 | 1011.6 |
| 20260902080548 | 78 | 152 | 0.0 | 0.0 | 0.00 | 0.00 | 0.00 | 59 | 1011.5 |
| 20260902075047 | 78 | 155 | 0.0 | 3.0 | 0.00 | 0.00 | 0.00 | 59 | 1011.6 |
| 20260902073547 | 79 | 153 | 0.0 | 1.0 | 0.00 | 0.00 | 0.00 | 58 | 1011.6 |
| 20260902072045 | 79 | 150 | 0.0 | 2.0 | 0.00 | 0.00 | 0.00 | 57 | 1011.5 |
| 20260902065043 | 80 | 133 | 0.0 | 1.0 | 0.00 | 0.00 | 0.00 | 54 | 1011.4 |
| 20260902063542 | 80 | 164 | 0.0 | 1.0 | 0.00 | 0.00 | 0.00 | 53 | 1011.4 |